TimePDT,TemperatureF,Dew PointF,Humidity,Sea Level PressureIn,VisibilityMPH,Wind Direction,Wind SpeedMPH,Gust SpeedMPH,PrecipitationIn,Events,Conditions,WindDirDegrees,DateUTC
12:52 AM,62.1,51.1,67,30.02,10.0,NW,4.6,-,N/A,,Partly Cloudy,310,2014-03-14 07:52:00
1:52 AM,62.1,51.1,67,30.02,10.0,NNW,4.6,-,N/A,,Partly Cloudy,330,2014-03-14 08:52:00
2:52 AM,60.1,48.9,67,30.02,10.0,Calm,Calm,-,N/A,,Clear,0,2014-03-14 09:52:00
3:52 AM,59.0,48.9,69,30.01,10.0,North,3.5,-,N/A,,Clear,350,2014-03-14 10:52:00
4:52 AM,57.9,50.0,75,30.01,10.0,Calm,Calm,-,N/A,,Clear,0,2014-03-14 11:52:00
5:52 AM,59.0,51.1,75,30.03,10.0,North,4.6,-,N/A,,Clear,10,2014-03-14 12:52:00
6:52 AM,57.9,48.9,72,30.05,10.0,NW,3.5,-,N/A,,Clear,310,2014-03-14 13:52:00
7:52 AM,59.0,51.1,75,30.06,10.0,Calm,Calm,-,N/A,,Clear,0,2014-03-14 14:52:00
8:52 AM,66.0,52.0,60,30.08,10.0,Calm,Calm,-,N/A,,Clear,0,2014-03-14 15:52:00
9:52 AM,68.0,52.0,56,30.09,10.0,South,4.6,-,N/A,,Clear,190,2014-03-14 16:52:00
10:52 AM,69.1,53.1,57,30.09,10.0,Variable,5.8,-,N/A,,Clear,0,2014-03-14 17:52:00
11:52 AM,70.0,52.0,53,30.10,10.0,West,10.4,-,N/A,,Partly Cloudy,270,2014-03-14 18:52:00
12:52 PM,70.0,53.1,55,30.09,10.0,WNW,11.5,-,N/A,,Partly Cloudy,290,2014-03-14 19:52:00
1:52 PM,71.1,54.0,55,30.08,10.0,NW,9.2,-,N/A,,Partly Cloudy,310,2014-03-14 20:52:00
2:52 PM,72.0,54.0,53,30.07,10.0,West,9.2,-,N/A,,Partly Cloudy,280,2014-03-14 21:52:00
3:52 PM,71.1,55.0,57,30.06,10.0,West,8.1,-,N/A,,Partly Cloudy,270,2014-03-14 22:52:00
4:52 PM,70.0,55.0,59,30.05,10.0,West,8.1,-,N/A,,Partly Cloudy,280,2014-03-14 23:52:00
5:52 PM,70.0,55.0,59,30.06,10.0,West,8.1,-,N/A,,Scattered Clouds,280,2014-03-15 00:52:00
6:52 PM,66.0,55.0,68,30.07,10.0,West,5.8,-,N/A,,Scattered Clouds,280,2014-03-15 01:52:00
7:52 PM,64.9,55.9,73,30.09,10.0,West,3.5,-,N/A,,Scattered Clouds,280,2014-03-15 02:52:00
8:52 PM,64.0,55.9,75,30.11,10.0,Calm,Calm,-,N/A,,Scattered Clouds,0,2014-03-15 03:52:00
9:52 PM,64.0,55.0,73,30.12,10.0,Calm,Calm,-,N/A,,Scattered Clouds,0,2014-03-15 04:52:00
10:52 PM,63.0,55.0,75,30.13,9.0,Calm,Calm,-,N/A,,Scattered Clouds,0,2014-03-15 05:52:00
11:52 PM,62.1,55.0,78,30.12,10.0,Calm,Calm,-,N/A,,Scattered Clouds,0,2014-03-15 06:52:00